Home   Weather   Modena   Past weeks
Flag for Italy

Past Weather in Modena, Italy — Yesterday and Last 2 Weeks

Now
46 °F

Clear.


Feels Like: 43 °F
Forecast: 56 / 35 °F
Wind: 7 mph from East

Location: Bologna / Borgo Panigale

Current Time: Feb 28, 2020 at 8:54:17 pm

Latest Report: Feb 28, 2020 at 7:50 pm


Visibility: 10 mi

Pressure: 30.09 "Hg

Humidity: 32%

Dew Point: 18 °F

Location of ModenaLocation

Past Weather in Modena — Graph

°F

Modena Temperature Yesterday

Maximum temperature yesterday: 59 °F (at 1:50 pm)
Minimum temperature yesterday: 37 °F (at 5:20 am)
Average temperature yesterday: 48 °F

High & Low Weather Summary for the Past Weeks

 TemperatureHumidityPressure
High64 °F (Feb 26, 12:20 pm)100% (Feb 14, 7:20 am)30.51 "Hg (Feb 14, 7:20 am)
Low34 °F (Feb 21, 5:50 am)14% (Feb 28, 3:50 pm)29.42 "Hg (Feb 26, 12:50 pm)
Average49 °F68%30.11 "Hg
* Reported Feb 13 7:20 pm — Feb 28 7:20 pm, Modena. Weather by CustomWeather, © 2020

Note: Actual official high and low records may vary slightly from our data, if they occured in-between our weather recording intervals... More about our weather records

Modena Weather History for the Previous 24 Hours

Scroll right to see more
 ConditionsComfort  
Time TempWeatherWind HumidityBarometerVisibility
7:20 pm
Fri, Feb 28
46 °FClear.6 mph32%30.09 "Hg10 mi
6:50 pm48 °FClear.5 mph25%30.09 "Hg10 mi
5:50 pm54 °FSunny.5 mph22%30.07 "Hg10 mi
5:20 pm57 °FPassing clouds.3 mph15%30.07 "HgN/A
4:50 pm59 °FSunny.3 mph14%30.07 "Hg10 mi
4:20 pm59 °FPassing clouds.3 mph14%30.07 "HgN/A
3:50 pm59 °FSunny.2 mph14%30.07 "Hg10 mi
3:20 pm59 °FPassing clouds.5 mph16%30.07 "HgN/A
2:50 pm59 °FPassing clouds.6 mph16%30.04 "HgN/A
2:20 pm59 °FPassing clouds.6 mph17%30.04 "HgN/A
1:50 pm59 °FPassing clouds.9 mph17%30.04 "HgN/A
1:20 pm57 °FPassing clouds.8 mph21%30.04 "HgN/A
12:50 pm57 °FPassing clouds.9 mph21%30.04 "HgN/A
12:20 pm57 °FPassing clouds.9 mph20%30.04 "HgN/A
11:50 am57 °FPassing clouds.9 mph23%30.04 "HgN/A
11:20 am55 °FPassing clouds.12 mph24%30.04 "HgN/A
10:50 am54 °FSunny.13 mph24%30.01 "Hg10 mi
10:20 am52 °FSunny.14 mph26%30.01 "Hg10 mi
9:50 am52 °FSunny.13 mph26%29.98 "Hg10 mi
9:20 am50 °FSunny.14 mph28%29.98 "Hg10 mi
8:50 am48 °FSunny.15 mph32%29.95 "Hg10 mi
8:20 am46 °FPassing clouds.10 mph34%29.95 "HgN/A
7:50 am45 °FSunny.14 mph37%29.92 "Hg10 mi
7:20 am45 °FSunny.15 mph39%29.89 "Hg10 mi
6:50 am45 °FClear.16 mph39%29.86 "Hg10 mi
6:20 am46 °FClear.18 mph37%29.83 "Hg10 mi
5:50 am46 °FClear.18 mph40%29.80 "Hg10 mi
5:20 am48 °FClear.21 mph37%29.77 "Hg10 mi
4:50 am48 °FClear.18 mph37%29.77 "Hg10 mi
4:20 am46 °FClear.16 mph43%29.74 "Hg10 mi
3:50 am46 °FClear.12 mph43%29.74 "Hg10 mi
3:20 am43 °FClear.8 mph46%29.71 "Hg10 mi
2:50 am46 °FClear.12 mph43%29.71 "Hg10 mi
2:20 am46 °FClear.10 mph37%29.71 "Hg10 mi
1:50 am46 °FClear.10 mph37%29.68 "Hg10 mi
1:20 am46 °FClear.12 mph43%29.68 "Hg10 mi
12:50 am48 °FPassing clouds.14 mph43%29.68 "HgN/A
12:20 am48 °FPassing clouds.12 mph58%29.65 "HgN/A
11:50 pm
Thu, Feb 27
46 °FPassing clouds.8 mph62%29.65 "HgN/A
11:20 pm45 °FPassing clouds.9 mph71%29.62 "HgN/A
10:50 pm46 °FClear.8 mph66%29.59 "Hg10 mi
10:20 pm46 °FClear.7 mph66%29.59 "Hg10 mi
9:50 pm48 °FClear.7 mph66%29.59 "Hg10 mi
9:20 pm50 °FPassing clouds.7 mph62%29.59 "HgN/A
8:50 pm50 °FPassing clouds.5 mph62%29.59 "HgN/A
8:20 pm50 °FPassing clouds.1 mph58%29.62 "HgN/A
Weather by CustomWeather, © 2020

See weather overview

Advertising